DW5492 Weather Reports


time (UTC)temp
C
wind
direction
speed
KPH
gust
KPH
rain 1hr
cm
rain 24hr
cm
rain mn
cm
humidity
%
barometer
mb
20260505160903 31 172 11.3 22.5 0.00 0.00 0.00 68 1012.9
20260505152724 31 158 9.7 20.9 0.00 0.00 0.00 68 1013.0
20260505151803 31 154 9.7 22.5 0.00 0.00 0.00 68 1013.0
20260505150924 31 126 11.3 20.9 0.00 0.00 0.00 69 1013.0
20260504212704 30 130 8.0 17.7 0.00 0.00 0.00 73 1010.2
20260504211826 30 143 6.4 17.7 0.00 0.00 0.00 73 1010.0
20260504210905 30 150 6.4 12.9 0.00 0.00 0.00 73 1010.1
20260504210005 30 143 6.4 17.7 0.00 0.00 0.00 73 1010.2
20260504205404 30 174 6.4 12.9 0.00 0.00 0.00 73 1009.9
20260504204504 30 166 6.4 16.1 0.00 0.00 0.00 73 1010.0
20260504203605 30 194 6.4 16.1 0.00 0.00 0.00 73 1009.9
20260504202725 30 166 9.7 16.1 0.00 0.00 0.00 73 1009.9
20260504201804 30 145 8.0 20.9 0.00 0.00 0.00 73 1009.8
20260504200926 30 176 8.0 24.1 0.00 0.00 0.00 73 1009.8
20260504200005 30 167 9.7 16.1 0.00 0.00 0.00 73 1010.1
20260504195426 30 179 9.7 17.7 0.00 0.00 0.00 73 1010.1
20260504194505 30 180 9.7 27.4 0.00 0.00 0.00 73 1010.2
20260504193604 30 187 9.7 20.9 0.00 0.00 0.00 73 1010.3
20260504192705 30 188 9.7 20.9 0.00 0.00 0.00 73 1010.1
20260504191805 30 205 11.3 22.5 0.00 0.00 0.00 73 1010.1
20260504190904 30 148 9.7 14.5 0.00 0.00 0.00 73 1010.3
20260504190005 30 158 6.4 12.9 0.00 0.00 0.00 73 1010.2
20260504185405 30 172 9.7 14.5 0.00 0.00 0.00 73 1010.4
20260504184504 30 178 9.7 20.9 0.00 0.00 0.00 73 1010.7
20260504183626 30 193 8.0 16.1 0.00 0.00 0.00 73 1010.5
20260504182704 30 182 9.7 14.5 0.00 0.00 0.00 73 1010.6
20260504181805 30 181 8.0 14.5 0.00 0.00 0.00 73 1010.7
20260504180905 30 197 9.7 16.1 0.00 0.00 0.00 73 1010.7
20260504180005 30 155 6.4 12.9 0.00 0.00 0.00 73 1010.8
20260504175405 30 140 8.0 16.1 0.00 0.00 0.00 73 1010.7
20260504174505 30 171 8.0 14.5 0.00 0.00 0.00 73 1011.0
20260504173605 30 208 9.7 16.1 0.00 0.00 0.00 73 1011.0
20260504172705 30 177 8.0 14.5 0.00 0.00 0.00 73 1011.2
20260504171805 30 140 8.0 14.5 0.00 0.00 0.00 73 1011.4
20260504170905 30 165 8.0 14.5 0.00 0.00 0.00 73 1011.3